Location: Nitra
(0.0000°N, 18.0833°E)
Time: 05:39:19
(UTC+01:00)

Cosmos 2112 Rocket - Pass Details

Date: 24 January 2021
Orbit: 757 x 786 km, 74.1° (Epoch: 04 March)

Event Time Altitude Azimuth Distance (km) Brightness Sun altitude
Rises 19:25:47 0° 347° (NNW) 3,199 7.1 -20.2°
Reaches altitude 10° 19:28:08 10° 347° (NNW) 2,275 6.4 -20.8°
Maximum altitude 19:33:18 86° 258° (WSW) 761 3.9 -22.0°
Drops below altitude 10° 19:38:29 10° 169° (S) 2,284 6.6 -23.2°
Sets 19:40:51 0° 168° (SSE) 3,213 7.3 -23.8°
